[[{"header":{"parameterUnit":"m.s-1","parameterCategory":1,"la1":30.2991,"la2":30.254,"lo1":-89.0895,"lo2":-89.0444,"dy":0.0017,"dx":0.0017,"nx":28,"ny":28,"refTime":"2025-12-04T03:00:00:Z","depth":0,"parameterNumber":2,"parameterNumberName":"U-component_of_WINDS"},"data":[0,0,0,0,0,0,0,0,0,0,0,0,0,0,0,0,0,0,0,0,0,0,0,0,0,0,0,0,0,0,0,0,0,0,0,0,0,0,0,0,0,0,0,0,0,0,0,0,0,0,0,0,0,0,0,0,0,0,0.7158,0.7158,0,0.7132,0.7131,0.7131,0.7106,0.7105,0.7105,0.7105,0.7077,0.7077,0.7076,0,0,0,0,0,0,0,0,0,0,0,0,0,0.7186,0.7186,0.7158,0.7158,0.7158,0.7132,0.7131,0.7131,0.7106,0.7105,0.7105,0.7105,0.7077,0.7077,0.7076,0,0,0,0,0,0,0,0,0,0,0,0,0,0.7168,0.7186,0.7158,0.7142,0.714,0.7132,0.7131,0.7131,0.7106,0.7105,0.7105,0.7104,0.7077,0.7077,0.7076,0.7082,0,0,0.7074,0.7074,0,0,0,0,0,0,0,0,0.717,0.7167,0.7145,0.7143,0.7141,0.7122,0.7131,0.7114,0.7106,0.7119,0.7105,0.7104,0.7092,0.709,0.7086,0.708,0.7079,0.7074,0.7074,0.7073,0.7073,0,0,0,0,0,0,0,0.7171,0.7168,0.7148,0.7144,0.7142,0.7136,0.7133,0.7128,0.7108,0.7118,0.7116,0.7113,0.7091,0.7087,0.7085,0.7079,0.7074,0.7073,0.7073,0.7073,0.7077,0.7077,0,0,0,0,0,0,0.7175,0.717,0.7148,0.7147,0.7154,0.7136,0.7132,0.7128,0.7108,0.7105,0.7113,0.7112,0.7088,0.7086,0.7084,0.709,0.7073,0.7073,0.7072,0.7076,0.7077,0.7077,0,0,0,0,0,0,0.7175,0.7173,0.715,0.7158,0.7154,0.7136,0.7131,0.7128,0.7124,0.7105,0.7102,0.7113,0.7088,0.7085,0.7083,0.7088,0.7072,0.7072,0.7076,0.7076,0.7077,0.7101,0,0,0,0,0,0,0.7176,0.7173,0.7175,0.7158,0.7154,0.7148,0.7132,0.7128,0.7123,0.7121,0.7104,0.7101,0.7087,0.7084,0.7082,0.7087,0.7071,0.7075,0.7076,0.7077,0.7099,0.7102,0.7105,0,0,0,0,0,0.7177,0.7183,0.7176,0.7173,0.7156,0.7149,0.7146,0.7131,0.7123,0.7125,0.7113,0.7101,0.7088,0.7084,0.7082,0.7087,0.7074,0.7076,0.7077,0.7098,0.7102,0.7105,0,0,0,0,0,0,0.7201,0.718,0.7172,0.7172,0.7162,0.7144,0.7146,0.7135,0.7128,0.7126,0.7107,0.7104,0.7103,0.7095,0.709,0.7091,0.708,0.708,0.7097,0.71,0.7103,0.7104,0.7071,0,0,0,0,0,0.7206,0.7202,0.7184,0.7186,0.7182,0.7165,0.7161,0.715,0.714,0.7135,0.7123,0.7113,0.7107,0.7103,0.7096,0.7098,0.7094,0.7101,0.7104,0.7106,0.7106,0.7107,0.711,0.7081,0.7081,0.7081,0,0,0.7217,0.7205,0.7203,0.719,0.7182,0.7178,0.7162,0.7158,0.7155,0.7135,0.7131,0.7123,0.711,0.711,0.7109,0.7103,0.7114,0.7107,0.7109,0.7108,0.7109,0.7111,0.7114,0.7082,0.7082,0.7081,0,0,0.7234,0.7225,0.7225,0.7217,0.7204,0.7193,0.7194,0.7178,0.7171,0.7168,0.7152,0.7149,0.7138,0.713,0.7124,0.714,0.7128,0.7138,0.7152,0.7153,0.7155,0.7157,0.7162,0.7164,0.7139,0.7139,0.7139,0,0.7248,0.7242,0.7227,0.7224,0.7219,0.7201,0.7202,0.7195,0.718,0.7177,0.717,0.7157,0.7147,0.7145,0.7149,0.7145,0.7145,0.7139,0.7156,0.7158,0.7159,0.7164,0.7166,0.714,0.714,0.714,0.714,0,0.7261,0.7257,0.7259,0.7246,0.7241,0.724,0.7224,0.7221,0.7211,0.7201,0.7198,0.7186,0.7177,0.7176,0.7166,0.7172,0.7169,0.7159,0.7147,0.7163,0.7168,0.7169,0.7142,0.7142,0.7141,0.7141,0,0,0.7291,0.727,0.7271,0.7265,0.725,0.7247,0.7245,0.7237,0.7234,0.7225,0.7223,0.7216,0.7207,0.7201,0.719,0.7191,0.7204,0.7181,0.7181,0.7186,0.721,0.7217,0.7219,0.7196,0.7197,0.7197,0.7211,0,0.7305,0.7301,0.7288,0.7288,0.7284,0.7268,0.7267,0.7257,0.7248,0.7244,0.7233,0.7228,0.7217,0.7213,0.7213,0.7202,0.7208,0.7201,0.7194,0.7194,0.7197,0.7222,0.7229,0.7243,0.7213,0.7213,0.7213,0,0.7321,0.7314,0.7314,0.7299,0.7297,0.7296,0.7287,0.7283,0.7273,0.7266,0.726,0.7248,0.7246,0.7235,0.7231,0.7227,0.7223,0.7218,0.7218,0.7216,0.7204,0.722,0.7247,0.7249,0.7216,0.7216,0.7215,0,0.7342,0.7333,0.7331,0.7327,0.731,0.731,0.7303,0.7292,0.7288,0.7281,0.7278,0.727,0.7265,0.726,0.7246,0.724,0.7244,0.7232,0.7238,0.7239,0.7239,0.7239,0.7265,0.7238,0.7238,0.7238,0.7238,0,0.7359,0.736,0.7341,0.734,0.734,0.7325,0.7326,0.7318,0.7308,0.7305,0.7291,0.7289,0.7271,0.7267,0.7257,0.7255,0.7254,0.7248,0.7245,0.7249,0.725,0.7246,0.7244,0.7239,0.7239,0.7239,0.7238,0,0.7383,0.737,0.7368,0.7353,0.7349,0.735,0.7337,0.7336,0.7326,0.7323,0.7321,0.7306,0.7301,0.7287,0.7278,0.7271,0.7272,0.7267,0.7276,0.7274,0.728,0.728,0.7304,0.7306,0.7279,0.7279,0.7279,0,0.7394,0.7395,0.738,0.7377,0.7371,0.7367,0.7363,0.7348,0.7345,0.7333,0.7333,0.7327,0.732,0.7312,0.73,0.7293,0.7288,0.7297,0.7287,0.7291,0.7287,0.7287,0.7287,0.7299,0.7299,0.73,0.73,0,0.7416,0.741,0.7404,0.7397,0.7393,0.7386,0.7379,0.7378,0.7361,0.7358,0.7352,0.7347,0.7338,0.7332,0.7323,0.7316,0.7305,0.7303,0.7304,0.7308,0.7313,0.731,0.7281,0.7303,0.7302,0.7302,0.7302,0.7302,0.7433,0.7433,0.7423,0.7417,0.741,0.7404,0.7402,0.7393,0.7388,0.7379,0.7371,0.7367,0.7357,0.7344,0.7338,0.7334,0.7328,0.733,0.733,0.733,0.7332,0.7314,0.7332,0.7332,0.7332,0.7332,0.7332,0,0.7454,0.7447,0.7442,0.7432,0.7428,0.7419,0.7411,0.7408,0.7404,0.7396,0.739,0.7384,0.7378,0.7366,0.7359,0.7359,0.7353,0.7357,0.7357,0.7355,0.7338,0.7337,0.7361,0.7361,0.7361,0.7361,0.7361,0.7361,0.7464,0.7462,0.7455,0.7451,0.7443,0.7439,0.7435,0.7429,0.7423,0.7416,0.7411,0.7404,0.7394,0.7387,0.7381,0.7377,0.7375,0.7381,0.7376,0.7359,0.7356,0.7354,0.7353,0.738,0.738,0.7394,0.7394,0.7394]},{"header":{"parameterUnit":"m.s-1","parameterCategory":1,"la1":30.2991,"la2":30.254,"lo1":-89.0895,"lo2":-89.0444,"dy":0.0017,"dx":0.0017,"nx":28,"ny":28,"refTime":"2025-12-04T03:00:00:Z","depth":0,"parameterNumber":3,"parameterNumberName":"V-component_of_WINDS"},"data":[0,0,0,0,0,0,0,0,0,0,0,0,0,0,0,0,0,0,0,0,0,0,0,0,0,0,0,0,0,0,0,0,0,0,0,0,0,0,0,0,0,0,0,0,0,0,0,0,0,0,0,0,0,0,0,0,0,0,-3.3341,-3.3342,0,-3.344,-3.3441,-3.3442,-3.3451,-3.345,-3.3449,-3.3448,-3.3544,-3.3547,-3.3551,0,0,0,0,0,0,0,0,0,0,0,0,0,-3.3158,-3.3161,-3.3341,-3.3342,-3.3344,-3.3439,-3.3441,-3.3442,-3.3451,-3.345,-3.3448,-3.3447,-3.3543,-3.3547,-3.3551,0,0,0,0,0,0,0,0,0,0,0,0,0,-3.3245,-3.3162,-3.3341,-3.336,-3.3362,-3.3439,-3.3441,-3.3442,-3.3451,-3.345,-3.3448,-3.3447,-3.3541,-3.3546,-3.3552,-3.3615,0,0,-3.3568,-3.357,0,0,0,0,0,0,0,0,-3.324,-3.3252,-3.3356,-3.3359,-3.3362,-3.3431,-3.3411,-3.35,-3.3452,-3.3417,-3.3448,-3.3446,-3.3507,-3.3515,-3.3537,-3.3619,-3.3624,-3.3568,-3.3571,-3.3574,-3.3575,0,0,0,0,0,0,0,-3.3234,-3.3247,-3.338,-3.3357,-3.3361,-3.3362,-3.3373,-3.3428,-3.347,-3.342,-3.3421,-3.3433,-3.3509,-3.3532,-3.3539,-3.3625,-3.3568,-3.3573,-3.3576,-3.3578,-3.3766,-3.3768,0,0,0,0,0,0,-3.3225,-3.3242,-3.3377,-3.3383,-3.3296,-3.3367,-3.3379,-3.3411,-3.3469,-3.3477,-3.3434,-3.3433,-3.3524,-3.3533,-3.3543,-3.3622,-3.3574,-3.3578,-3.3582,-3.3764,-3.3766,-3.3768,0,0,0,0,0,0,-3.3221,-3.3237,-3.3373,-3.3313,-3.333,-3.3372,-3.3407,-3.3413,-3.3437,-3.348,-3.3487,-3.3451,-3.3523,-3.3535,-3.3598,-3.3625,-3.3581,-3.3586,-3.3762,-3.3765,-3.3767,-3.378,0,0,0,0,0,0,-3.3216,-3.3235,-3.326,-3.3314,-3.3334,-3.3427,-3.3409,-3.3416,-3.3446,-3.3446,-3.3497,-3.3504,-3.3523,-3.359,-3.3603,-3.3632,-3.359,-3.376,-3.3763,-3.3766,-3.3778,-3.3783,-3.3788,0,0,0,0,0,-3.3209,-3.3259,-3.3262,-3.3278,-3.3366,-3.3429,-3.344,-3.3462,-3.3448,-3.3474,-3.3502,-3.3502,-3.362,-3.3596,-3.3611,-3.3642,-3.3758,-3.3762,-3.3766,-3.3775,-3.3782,-3.3788,0,0,0,0,0,0,-3.3206,-3.3266,-3.327,-3.3339,-3.3379,-3.343,-3.3463,-3.3468,-3.3512,-3.3509,-3.3533,-3.3545,-3.3606,-3.363,-3.3602,-3.3707,-3.3688,-3.3695,-3.3689,-3.3696,-3.3701,-3.3694,-3.3594,0,0,0,0,0,-3.3213,-3.3261,-3.331,-3.3366,-3.3386,-3.3421,-3.3449,-3.3463,-3.3505,-3.3521,-3.3553,-3.3593,-3.3639,-3.3669,-3.3714,-3.3781,-3.3793,-3.381,-3.3815,-3.3819,-3.3825,-3.3864,-3.3872,-3.3782,-3.3782,-3.3782,0,0,-3.3229,-3.3268,-3.3296,-3.3366,-3.3399,-3.3447,-3.3435,-3.3485,-3.3521,-3.3528,-3.359,-3.3615,-3.3661,-3.3727,-3.3757,-3.3748,-3.3853,-3.3824,-3.3827,-3.3831,-3.3869,-3.3878,-3.3885,-3.3785,-3.3784,-3.3784,0,0,-3.3282,-3.3316,-3.3367,-3.3401,-3.3451,-3.3475,-3.3487,-3.3538,-3.3556,-3.3619,-3.3626,-3.3667,-3.3746,-3.3779,-3.3806,-3.3873,-3.3876,-3.3887,-3.3914,-3.3952,-3.3959,-3.3965,-3.399,-3.3999,-3.3893,-3.3893,-3.3893,0,-3.3294,-3.3368,-3.3392,-3.3443,-3.3474,-3.3485,-3.3537,-3.3568,-3.363,-3.3651,-3.364,-3.3741,-3.3772,-3.3847,-3.3863,-3.3884,-3.3899,-3.3881,-3.3956,-3.3963,-3.3969,-3.3993,-3.4002,-3.3894,-3.3894,-3.3894,-3.3894,0,-3.3381,-3.3432,-3.3467,-3.3529,-3.3564,-3.3615,-3.3646,-3.3679,-3.3689,-3.3714,-3.3778,-3.3816,-3.387,-3.3888,-3.3898,-3.3964,-3.3957,-3.3951,-3.3932,-3.3979,-3.4002,-3.4011,-3.3896,-3.3895,-3.3895,-3.3894,0,0,-3.3434,-3.3511,-3.3523,-3.3552,-3.361,-3.3649,-3.37,-3.3755,-3.3782,-3.3825,-3.3869,-3.3936,-3.3932,-3.3962,-3.3976,-3.4009,-3.4061,-3.3999,-3.4,-3.401,-3.4138,-3.4143,-3.4153,-3.4063,-3.4065,-3.4067,-3.4134,0,-3.3494,-3.3589,-3.3613,-3.3693,-3.374,-3.3752,-3.3797,-3.3837,-3.3861,-3.3904,-3.393,-3.3978,-3.3968,-3.3987,-3.402,-3.4048,-3.4087,-3.4043,-3.4104,-3.4106,-3.4093,-3.4165,-3.417,-3.4232,-3.4143,-3.4145,-3.4146,0,-3.3577,-3.3624,-3.3709,-3.3763,-3.3783,-3.3824,-3.3876,-3.3917,-3.3963,-3.3978,-3.4013,-3.4025,-3.4078,-3.4056,-3.4131,-3.41,-3.4127,-3.4144,-3.4147,-3.4154,-3.4129,-3.4174,-3.4252,-3.4262,-3.416,-3.4159,-3.4158,0,-3.3609,-3.3693,-3.3755,-3.3779,-3.3842,-3.3871,-3.3898,-3.3942,-3.3974,-3.4019,-3.404,-3.409,-3.4118,-3.4156,-3.418,-3.4162,-3.4253,-3.4233,-3.4267,-3.4267,-3.4286,-3.4285,-3.437,-3.4302,-3.4302,-3.4301,-3.4301,0,-3.3674,-3.3726,-3.3771,-3.3809,-3.3868,-3.3894,-3.3951,-3.3979,-3.4018,-3.4062,-3.4074,-3.4114,-3.4144,-3.4188,-3.4207,-3.4266,-3.4278,-3.4292,-3.4297,-3.4291,-3.429,-3.4309,-3.4306,-3.4304,-3.4303,-3.4303,-3.4302,0,-3.3719,-3.3751,-3.382,-3.3875,-3.389,-3.3931,-3.3977,-3.4015,-3.404,-3.4095,-3.4109,-3.4148,-3.4201,-3.4229,-3.4295,-3.4308,-3.4375,-3.4376,-3.436,-3.4362,-3.4395,-3.4392,-3.4496,-3.4512,-3.4433,-3.4433,-3.4434,0,-3.3758,-3.3799,-3.3859,-3.3891,-3.3919,-3.3968,-3.4002,-3.403,-3.4063,-3.4119,-3.415,-3.4204,-3.4249,-3.4332,-3.4366,-3.4416,-3.442,-3.4453,-3.4427,-3.4421,-3.4421,-3.4419,-3.4424,-3.4457,-3.4458,-3.4459,-3.4459,0,-3.3826,-3.3841,-3.3889,-3.3943,-3.3983,-3.4027,-3.407,-3.4094,-3.4129,-3.4166,-3.4222,-3.4257,-3.4325,-3.4378,-3.4432,-3.4459,-3.4465,-3.4467,-3.4478,-3.4473,-3.4463,-3.447,-3.4373,-3.4464,-3.4464,-3.4463,-3.4463,-3.4463,-3.3871,-3.3908,-3.3957,-3.4011,-3.4046,-3.4087,-3.4126,-3.4157,-3.4204,-3.4263,-3.4276,-3.4335,-3.438,-3.4453,-3.4481,-3.4527,-3.452,-3.4535,-3.454,-3.4543,-3.4545,-3.4455,-3.4537,-3.4536,-3.4536,-3.4536,-3.4536,0,-3.394,-3.3972,-3.4022,-3.4083,-3.4125,-3.4129,-3.4177,-3.4212,-3.4264,-3.4307,-3.4352,-3.4416,-3.4468,-3.4506,-3.456,-3.4589,-3.4593,-3.4602,-3.4601,-3.4607,-3.4548,-3.4534,-3.4598,-3.4598,-3.4598,-3.4598,-3.4598,-3.4598,-3.3981,-3.4045,-3.4066,-3.4148,-3.4179,-3.4239,-3.4266,-3.4303,-3.4338,-3.441,-3.4454,-3.448,-3.452,-3.4577,-3.4625,-3.4635,-3.4655,-3.4663,-3.4674,-3.4617,-3.4611,-3.4605,-3.4592,-3.4667,-3.4667,-3.4729,-3.473,-3.473]}]]